QPF
0.00 0.00 0.00 0.00 0.00 0.00 0.00 0.00 0.00 0.00 0.00 0.00 0.00 0.00 0.00 0.00 0.00 0.00 0.00 0.00 0.00 0.00 0.00 0.00 0.00 0.00 0.00
0.00 0.00 0.00 0.00 0.00 0.00 0.00 0.00 0.00 0.00 0.00 0.00 0.00 0.00 0.00 0.00 0.00 0.00 0.00 0.00 0.00 0.00 0.00 0.01 0.00 0.00 0.00
0.00 0.00 0.00 0.00 0.00 0.00 0.00 0.00 0.00 0.00 0.00 0.00 0.00 0.00 0.00 0.00 0.00 0.00 0.00 0.01 0.01 0.00 0.00 0.00 0.00 0.00 0.00
0.00 0.00 0.00 0.00 0.00 0.00 0.00 0.00 0.00 0.00 0.00 0.00 0.00 0.00 0.00 0.00 0.00 0.00 0.00 0.00 0.00 0.00 0.01 0.00 0.00 0.00 0.00
0.00 0.00 0.00 0.00 0.00 0.00 0.00 0.00 0.00 0.00 0.00 0.00 0.00 0.00 0.00 0.00 0.00 0.00 0.00 0.00 0.00 0.00 0.00 0.01 0.01 0.01 0.01
0.00 0.00 0.00 0.00 0.00 0.00 0.00 0.00 0.00 0.00 0.00 0.00 0.00 0.00 0.00 0.00 0.00 0.00 0.00 0.00 0.00 0.00 0.00 0.00 0.00 0.00 0.01
0.00 0.00 0.00 0.00 0.00 0.00 0.00 0.00 0.00 0.00 0.00 0.01 0.00 0.00 0.00 0.00 0.00 0.00 0.00 0.00 0.00 0.00 0.00 0.00 0.00 0.00 0.01
0.00 0.00 0.00 0.00 0.00 0.01 0.02 0.03 0.03 0.01 0.01 0.03 0.00 0.00 0.00 0.00 0.00 0.00 0.00 0.00 0.00 0.00 0.01 0.01 0.01 0.01 0.01
0.00 0.00 0.01 0.01 0.02 0.03 0.05 0.03 0.01 0.00 0.00 0.03 0.01 0.00 0.00 0.00 0.00 0.00 0.00 0.00 0.01 0.02 0.02 0.03 0.04 0.04 0.03
0.00 0.00 0.00 0.00 0.01 0.01 0.02 0.03 0.01 0.02 0.00 0.03 0.00 0.00 0.02 0.00 0.00 0.00 0.00 0.00 0.01 0.03 0.04 0.04 0.05 0.03 0.03
0.00 0.00 0.00 0.00 0.00 0.00 0.00 0.00 0.02 0.03 0.00 0.05 0.06 0.03 0.05 0.01 0.00 0.00 0.00 0.00 0.00 0.01 0.01 0.05 0.06 0.06 0.02
0.00 0.00 0.00 0.00 0.00 0.00 0.00 0.00 0.01 0.02 0.00 0.02 0.08 0.03 0.03 0.05 0.01 0.00 0.00 0.00 0.00 0.00 0.00 0.01 0.04 0.07 0.10
0.00 0.00 0.00 0.00 0.00 0.00 0.00 0.00 0.00 0.00 0.00 0.01 0.05 0.04 0.05 0.06 0.03 0.01 0.01 0.00 0.00 0.01 0.01 0.02 0.02 0.02 0.03
0.01 0.00 0.00 0.00 0.00 0.00 0.02 0.00 0.01 0.00 0.00 0.02 0.03 0.05 0.06 0.05 0.05 0.03 0.01 0.00 0.00 0.00 0.01 0.01 0.02 0.02 0.01
0.00 0.00 0.00 0.00 0.00 0.00 0.02 0.02 0.03 0.01 0.01 0.01 0.02 0.04 0.05 0.07 0.05 0.01 0.02 0.01 0.00 0.01 0.01 0.01 0.01 0.02 0.02
0.01 0.01 0.01 0.01 0.01 0.01 0.03 0.05 0.03 0.01 0.02 0.01 0.01 0.03 0.04 0.04 0.02 0.01 0.01 0.01 0.01 0.02 0.02 0.03 0.02 0.01 0.01
0.02 0.01 0.01 0.01 0.02 0.03 0.03 0.03 0.02 0.01 0.01 0.01 0.01 0.01 0.02 0.01 0.00 0.00 0.01 0.01 0.01 0.01 0.01 0.02 0.01 0.01 0.00
MSLP
1017.65 1017.37 1017.18 1017.00 1016.60 1016.33 1015.93 1015.57 1015.17 1014.77 1014.42 1014.01 1013.60 1013.28 1013.02 1012.84 1012.69 1012.54 1012.47 1012.45 1012.42 1012.48 1012.49 1012.50 1012.48 1012.39 1012.36
1017.56 1016.90 1016.63 1016.29 1016.04 1015.79 1015.36 1014.95 1014.68 1014.29 1013.83 1013.44 1013.08 1012.69 1012.38 1012.18 1012.04 1011.94 1011.87 1011.76 1011.72 1011.77 1011.74 1011.90 1011.99 1011.95 1011.86
1017.30 1016.73 1016.23 1015.92 1015.44 1015.08 1014.74 1014.39 1014.12 1013.77 1013.34 1012.94 1012.52 1012.18 1011.93 1011.72 1011.44 1011.20 1011.08 1011.03 1010.97 1010.95 1011.03 1011.11 1011.25 1011.36 1011.37
1017.13 1016.54 1015.97 1015.51 1015.18 1014.73 1014.09 1013.81 1013.41 1013.12 1012.74 1012.35 1011.99 1011.63 1011.35 1011.14 1010.93 1010.68 1010.51 1010.35 1010.29 1010.22 1010.16 1010.30 1010.41 1010.55 1010.73
1016.64 1016.25 1015.74 1015.42 1015.18 1014.65 1014.14 1013.57 1013.07 1012.86 1012.33 1011.97 1011.61 1011.36 1011.09 1010.77 1010.52 1010.32 1010.08 1009.80 1009.64 1009.53 1009.45 1009.40 1009.42 1009.59 1009.80
1016.10 1015.49 1014.90 1014.72 1014.46 1014.23 1013.88 1013.48 1012.60 1012.25 1011.81 1011.24 1011.32 1010.83 1010.60 1010.20 1009.89 1009.48 1009.25 1009.07 1008.84 1008.75 1008.72 1008.60 1008.53 1008.75 1008.90
1015.22 1014.83 1014.33 1014.14 1013.91 1013.48 1013.15 1012.65 1011.95 1011.36 1011.42 1010.51 1010.36 1009.68 1009.22 1008.88 1008.50 1008.34 1008.21 1008.10 1007.97 1007.82 1007.80 1007.70 1007.75 1008.03 1008.22
1014.22 1013.79 1013.49 1013.08 1012.70 1012.36 1011.98 1011.36 1010.83 1010.46 1010.66 1009.85 1009.51 1008.67 1008.33 1007.83 1007.50 1007.34 1007.23 1007.11 1006.98 1006.87 1006.80 1006.82 1006.96 1007.18 1007.31
1012.94 1012.55 1012.23 1011.85 1011.49 1011.29 1010.79 1010.81 1009.91 1009.29 1009.50 1009.23 1008.47 1008.13 1007.75 1007.15 1006.77 1006.45 1006.31 1006.18 1006.08 1005.98 1005.86 1005.99 1006.17 1006.35 1006.50
1012.01 1011.56 1011.46 1011.11 1010.89 1010.81 1010.45 1009.97 1009.71 1008.77 1008.56 1008.60 1008.02 1008.10 1007.24 1006.13 1005.94 1006.08 1006.10 1005.76 1005.56 1005.30 1005.40 1005.60 1005.73 1005.83 1006.33
1011.42 1011.12 1010.72 1010.37 1010.01 1009.90 1009.77 1009.57 1009.03 1008.34 1008.01 1007.98 1007.32 1007.13 1006.95 1006.32 1006.10 1005.83 1005.69 1005.52 1005.45 1005.55 1005.59 1005.70 1005.68 1005.48 1005.85
1011.15 1010.78 1010.35 1009.74 1009.32 1009.08 1008.78 1008.53 1008.16 1007.62 1007.42 1007.26 1006.75 1006.60 1006.31 1005.89 1005.69 1005.56 1005.46 1005.38 1005.44 1005.54 1005.68 1005.67 1005.60 1005.53 1005.39
1010.59 1010.08 1009.60 1009.03 1008.61 1008.30 1007.89 1007.45 1007.06 1006.63 1006.34 1006.22 1005.88 1005.66 1005.55 1005.31 1005.31 1005.28 1005.38 1005.20 1005.23 1005.45 1005.52 1005.58 1005.63 1005.65 1005.72
1009.82 1009.35 1008.85 1008.38 1007.82 1007.35 1006.95 1006.55 1006.17 1005.54 1005.22 1005.12 1005.09 1005.06 1004.83 1004.66 1004.70 1004.90 1004.99 1005.15 1005.04 1005.24 1005.40 1005.42 1005.47 1005.56 1005.65
1009.28 1008.67 1008.17 1007.62 1006.99 1006.55 1006.24 1005.76 1005.32 1004.92 1004.66 1004.61 1004.58 1004.47 1004.30 1004.28 1004.45 1004.58 1004.75 1004.94 1005.00 1005.14 1005.28 1005.20 1005.18 1005.28 1005.39
1008.60 1008.11 1007.50 1006.89 1006.34 1005.83 1005.44 1004.97 1004.62 1004.44 1004.42 1004.35 1004.43 1004.49 1004.45 1004.43 1004.32 1004.49 1004.71 1004.88 1004.94 1004.98 1005.00 1004.99 1004.87 1004.84 1004.91
1007.92 1007.35 1006.96 1006.31 1005.71 1005.14 1004.57 1004.32 1004.17 1004.21 1004.25 1004.27 1004.39 1004.61 1004.64 1004.73 1004.68 1004.43 1004.71 1004.79 1004.82 1004.82 1004.78 1004.69 1004.57 1004.44 1004.49
Thickness
5436 5437 5437 5435 5437 5438 5440 5442 5443 5443 5446 5450 5454 5456 5458 5460 5462 5466 5468 5470 5473 5476 5478 5481 5484 5488 5493
5417 5418 5417 5418 5420 5421 5423 5425 5427 5429 5431 5433 5436 5439 5442 5443 5445 5446 5449 5453 5456 5459 5462 5465 5467 5471 5476
5398 5400 5403 5402 5404 5404 5406 5408 5409 5411 5414 5416 5419 5422 5424 5426 5428 5431 5433 5435 5439 5442 5444 5447 5450 5453 5457
5377 5380 5384 5385 5386 5388 5393 5392 5394 5393 5396 5397 5400 5403 5405 5407 5408 5411 5414 5417 5421 5425 5428 5430 5432 5435 5438
5364 5363 5364 5362 5362 5367 5370 5375 5379 5377 5380 5381 5382 5383 5384 5384 5386 5388 5391 5397 5401 5405 5410 5414 5416 5419 5421
5350 5352 5354 5350 5348 5346 5345 5346 5357 5359 5357 5365 5358 5364 5364 5364 5364 5368 5372 5376 5381 5385 5388 5393 5397 5398 5402
5335 5335 5334 5330 5328 5327 5325 5326 5331 5335 5325 5339 5338 5344 5343 5345 5344 5345 5349 5353 5359 5363 5366 5370 5374 5376 5379
5315 5315 5311 5310 5309 5308 5307 5309 5314 5316 5299 5309 5312 5321 5319 5322 5321 5320 5323 5328 5333 5336 5340 5343 5347 5350 5356
5303 5301 5297 5296 5293 5287 5289 5283 5293 5299 5285 5283 5293 5293 5297 5302 5300 5298 5301 5305 5308 5310 5314 5317 5320 5324 5328
5290 5288 5282 5279 5275 5268 5267 5266 5267 5277 5273 5267 5272 5267 5279 5287 5286 5282 5280 5284 5288 5290 5291 5291 5294 5298 5299
5271 5271 5269 5266 5263 5259 5255 5253 5257 5261 5262 5257 5266 5266 5264 5273 5272 5270 5269 5269 5269 5268 5268 5268 5271 5275 5279
5254 5254 5254 5254 5253 5252 5252 5252 5253 5257 5256 5254 5258 5258 5259 5263 5264 5260 5259 5258 5257 5256 5255 5256 5258 5262 5268
5244 5245 5245 5247 5249 5250 5251 5251 5254 5254 5254 5253 5254 5255 5255 5257 5257 5255 5255 5255 5253 5252 5251 5252 5254 5255 5259
5237 5239 5242 5244 5247 5248 5249 5250 5251 5254 5253 5252 5252 5252 5254 5256 5255 5253 5252 5251 5252 5250 5250 5250 5251 5252 5254
5232 5237 5239 5242 5245 5246 5246 5249 5251 5253 5253 5251 5251 5251 5252 5252 5251 5249 5248 5247 5247 5247 5246 5248 5250 5251 5253
5231 5233 5237 5241 5244 5246 5248 5249 5250 5251 5248 5247 5247 5247 5247 5247 5247 5245 5243 5244 5245 5245 5246 5248 5251 5253 5255
5229 5233 5234 5240 5245 5248 5252 5252 5252 5248 5247 5245 5242 5240 5239 5242 5241 5243 5240 5242 5243 5244 5246 5249 5251 5255 5257